sat.trackr.live / text

‹ back to catalog

ALSAT-3B

NORAD 67646 · 2026-021A

PAYLOAD ACTIVE UNKNOWN

§ Identity

Operator
Country
ALG
Launch date
2026-01-31
Launch site
JSC
Launch vehicle
Mass (kg)
RCS (m²)

External: N2YO · Heavens-Above · Gunter

§ Orbital elements

Epoch: 2026-05-25T02:25:39.383328Z

Period
94.54 min
Inclination
97.4591°
Eccentricity
0.0013940
Mean motion
15.23116216 rev/d
Perigee alt
486.9 km
Apogee alt
506.0 km
Semi-major
6,874.6 km
B*
2.1064e-4
RAAN
219.0106°
Arg perigee
242.7642°
Mean anomaly
117.2174°
Rev number
1,735

§ Raw data

ALSAT-3B1 67646U 26021A   26145.10115027  .00004910  00000+0  21064-3 0  99942 67646  97.4591 219.0106 0013940 242.7642 117.2174 15.23116216 17356

JSON: /api/v1/satellites/67646 · /tle

For live sub-satellite position, see the globe view (requires WebGL).

§ Visibility from observer

Set your observer location to see the next 7 days of passes ≥ 10°. The values pass through the URL so the page stays shareable.

No JS? Fill the form by hand. The geolocation button needs JavaScript.

§ Radio — SatNOGS DB

ModeDescriptionDownlinkUplink
FM S-band telemetry 2.254 GHz

1 transmitter · refreshed weekly from db.satnogs.org